User: anonymous   Login
Location: Fountain Hills
(33.6120°N, 111.7170°W)
Time: 21:36:38
(UTC-07:00)
Language:

Hamsat - Orbit

View from above orbital plane
View from above orbital plane
View from above satellite
View from above satellite

Ground track
Ground track

The orbit data is extracted from the following two-line orbital elements,

1 28650U 05017B   15108.47830629  .00003259  00000-0  36663-3 0  9994
2 28650 097.5723 103.6633 0022945 226.4783 133.4528 14.87158661538573
Epoch (UTC): 18 April 2015 11:28:45
Eccentricity: 0.0022945
inclination: 97.5723°
perigee height: 591 km
apogee height: 623 km
right ascension of ascending node: 103.6633°
argument of perigee: 226.4783°
revolutions per day: 14.87158661
mean anomaly at epoch: 133.4528°
orbit number at epoch: 53857

The dashed part of the orbit path shows where the satellite is in the earth's shadow,  

DLR